This is the latest recevied weather packets stored in our database for station/object IK2ILW-4. If no packets are shown the sender has not sent any weather packets the latest 10 day(s).
| Time | Temp. | Humidity | Pressure | Rain* | Wind** | Luminosity | Snow |
|---|---|---|---|---|---|---|---|
| 1778068655 | 6.11° C | 96% | 1010.5 hPa | 14.48 mm | - | 271 W/m² | - |
| 1778068354 | 6.11° C | 96% | 1010.5 hPa | 14.48 mm | - | 345 W/m² | - |
| 1778068054 | 6.67° C | 96% | 1010.5 hPa | 14.48 mm | - | 306 W/m² | - |
| 1778067770 | 6.67° C | 95% | 1010.4 hPa | 14.48 mm | - | 408 W/m² | - |
| 1778067465 | 7.22° C | 93% | 1010.4 hPa | 14.48 mm | - | 251 W/m² | - |
| 1778067164 | 7.22° C | 93% | 1010.4 hPa | 14.48 mm | - | 234 W/m² | - |
| 1778066863 | 7.22° C | 93% | 1010.6 hPa | 14.48 mm | - | 341 W/m² | - |
| 1778066560 | 7.78° C | 88% | 1010.6 hPa | 14.48 mm | - | 466 W/m² | - |
| 1778066259 | 7.78° C | 91% | 1010.6 hPa | 14.48 mm | - | 415 W/m² | - |
| 1778065956 | 7.22° C | 92% | 1010.9 hPa | 14.48 mm | - | 309 W/m² | - |
| 1778065673 | 7.22° C | 92% | 1010.9 hPa | 14.48 mm | - | 230 W/m² | - |
| 1778065368 | 7.22° C | 91% | 1010.9 hPa | 14.48 mm | - | 272 W/m² | - |
| 1778065065 | 7.22° C | 89% | 1011 hPa | 14.48 mm | - | 169 W/m² | - |
| 1778064764 | 7.22° C | 89% | 1011 hPa | 14.48 mm | - | 118 W/m² | - |
| 1778064460 | 7.22° C | 91% | 1011 hPa | 14.48 mm | - | 193 W/m² | - |
| 1778064156 | 7.22° C | 91% | 1011 hPa | 14.48 mm | - | 121 W/m² | - |
| 1778063855 | 6.67° C | 91% | 1011 hPa | 14.48 mm | - | 65 W/m² | - |
| 1778063555 | 6.67° C | 92% | 1011 hPa | 14.48 mm | - | 65 W/m² | - |
| 1778063257 | 6.67° C | 96% | 1011.1 hPa | 14.48 mm | - | 102 W/m² | - |
| 1778062956 | 6.67° C | 97% | 1011.1 hPa | 14.48 mm | - | 139 W/m² | - |
| 1778062653 | 6.11° C | 98% | 1011.1 hPa | 14.48 mm | - | 69 W/m² | - |
| 1778062373 | 6.11° C | 98% | 1011.4 hPa | 14.48 mm | - | 72 W/m² | - |
| 1778062068 | 6.11° C | 98% | 1011.4 hPa | 14.48 mm | - | 56 W/m² | - |
| 1778061764 | 5.56° C | 98% | 1011.4 hPa | 14.48 mm | - | 102 W/m² | - |
| 1778061160 | 5.56° C | 98% | 1011.2 hPa | 14.48 mm | - | 62 W/m² | - |
* Rain since midnight (hover to see other rain measurements)
** Current wind speed in m/s (hover to see current wind gust speed)